Printer-friendly version

IAU Minor Planet Center

Minor Planet Center

MPEC 2000-K32: 2000 GK137 = 2000 JT10

The following Minor Planet Electronic Circular may be linked-to from your own Web pages, but must not otherwise be redistributed electronically.


Read MPEC 2000-K31 Read MPEC 2000-K33


M.P.E.C. 2000-K32                                Issued 2000 May 30, 02:31 UT

     The Minor Planet Electronic Circulars contain information on unusual
         minor planets and routine data on comets.  They are published
   on behalf of Commission 20 of the International Astronomical Union by the
          Minor Planet Center, Smithsonian Astrophysical Observatory,
                          Cambridge, MA 02138, U.S.A.

             Prepared using the Tamkin Foundation Computer Network

             BMARSDEN@CFA.HARVARD.EDU or GWILLIAMS@CFA.HARVARD.EDU
          URL http://cfa-www.harvard.edu/iau/mpc.html  ISSN 1523-6714

                            2000 GK137 = 2000 JT10

Observations:
     K00GD7K  C2000 05 29.31221 17 34 52.53 +24 12 57.3          16.3        704
     K00GD7K  C2000 05 29.32651 17 34 53.79 +24 13 42.9          16.4        704
     K00GD7K  C2000 05 29.34070 17 34 54.98 +24 14 28.9          16.3        704
     K00GD7K  C2000 05 29.35559 17 34 56.30 +24 15 16.1          16.5        704
     K00GD7K  C2000 05 29.36962 17 34 57.50 +24 16 01.1          16.7        704
     K00GD7K  C2000 05 29.85150 17 35 46.78 +24 41 40.4          16.0 R      046
     K00GD7K  C2000 05 29.85240 17 35 46.89 +24 41 42.9                      046
     K00GD7K  C2000 05 29.85323 17 35 46.97 +24 41 45.8                      046
     K00GD7K  C2000 05 29.85484 17 35 47.13 +24 41 51.0                      046
     K00GD7K  C2000 05 29.85571 17 35 47.20 +24 41 53.0                      046
     K00GD7K  C2000 05 29.87877 17 35 49.36 +24 43 09.1                      557
     K00GD7K  C2000 05 29.87958 17 35 49.41 +24 43 11.5                      557
     K00GD7K  C2000 05 29.88041 17 35 49.49 +24 43 14.4                      557
     K00GD7K  C2000 05 29.88124 17 35 49.58 +24 43 17.3                      557
     K00GD7K  C2000 05 29.88206 17 35 49.65 +24 43 19.9          16.7 V      557
     K00GD7K  C2000 05 29.88943 17 35 50.46 +24 43 42.9                      611
     K00GD7K  C2000 05 29.89087 17 35 50.60 +24 43 47.7                      611
     K00GD7K  C2000 05 29.89777 17 35 51.24 +24 44 10.4                      611
     K00GD7K  C2000 05 29.89889 17 35 51.35 +24 44 14.3                      611
     K00GD7K  C2000 05 29.89991 17 35 51.43 +24 44 17.7                      611

Observer details:
046 Klet.  Observers M. Tichy, Z. Moravec.  0.57-m f/5.2 reflector + CCD.
557 Ondrejov.  Observers P. Pravec, P. Kusnirak.  0.65-m f/3.6 reflector + CCD.
611 Starkenburg.  Observers M. Busch, R. Stoss.  0.45-m f/4.4 reflector + CCD.
704 Lincoln Laboratory ETS, New Mexico.  Observers M. Blythe, F. Shelly,
    M. Bezpalko, M. Elowitz, R. Huber, L. Manguso.  Measurers J. Stuart,
    R. Sayer, J. B. Evans.  1.0-m f/2.15 reflector + CCD.

Orbital elements:
2000 GK137 = 2000 JT10                                               PHA 0.034D
Id. T. B. Spahr
Epoch 2000 Sept. 13.0 TT = JDT 2451800.5                Williams
M  15.93424              (2000.0)            P               Q
n   0.34945875     Peri.  150.06232     +0.71141070     +0.70135060
a   1.9962064      Node   165.12780     -0.67443255     +0.69923294
e   0.5054525      Incl.   10.03994     -0.19757418     +0.13849415
P   2.82           H   16.7           G   0.15           U   5
Residuals in seconds of arc
000413 704  1.1+  0.5+    000509 704  0.2+  0.7+    000529 046  0.1-  0.0
000413 704  0.5+  0.3-    000510 704  0.0   0.2+    000529 046  0.0   0.1-
000413 704  0.6-  0.5+    000510 704  0.0   0.5-    000529 046  0.1-  0.9-
000413 704  0.0   0.0     000510 704  0.2+  0.0     000529 557  0.2+  0.1+
000413 704  0.1+  0.9-    000510 704  0.6+  0.4-    000529 557  0.1-  0.1-
000414 704  0.0   0.8+    000510 704  0.5+  0.0     000529 557  0.1-  0.1+
000414 704  0.7-  0.5-    000529 704  0.0   0.3+    000529 557  0.1+  0.3+
000414 704  0.2+  0.4-    000529 704  0.3+  0.0     000529 557  0.0   0.2+
000414 704  0.7-  0.5+    000529 704  0.2-  0.5+    000529 611  0.0   0.4-
000509 704  0.0   0.1-    000529 704  0.2+  0.0     000529 611  0.1+  0.3-
000509 704  0.1-  0.5-    000529 704  0.0   0.2+    000529 611  0.0   0.2-
000509 704  0.7-  0.3+    000529 046  0.4-  0.3+    000529 611  0.1+  0.1+
000509 704  0.6-  0.0     000529 046  0.1-  0.2-    000529 611  0.1-  0.2+

Ephemeris:
2000 GK137               a,e,i = 2.00, 0.51, 10                  q = 0.9872
Date    TT    R. A. (2000) Decl.     Delta      r     Elong.  Phase     V
2000 05 26    17 29.71   +21 21.2    0.307    1.244   133.5    36.2    16.1
2000 05 31    17 37.71   +25 44.3    0.279    1.212   129.8    40.0    15.9
2000 06 05    17 47.28   +30 29.8    0.255    1.181   125.4    44.5    15.8
2000 06 10    17 59.33   +35 37.8    0.233    1.151   120.4    49.6    15.7
2000 06 15    18 15.24   +41 08.2    0.214    1.122   114.9    55.2    15.6
2000 06 20    18 37.20   +46 58.4    0.197    1.096   109.0    61.3    15.6
2000 06 25    19 08.80   +52 58.3    0.183    1.072   102.8    67.6    15.5
2000 06 30    19 55.86   +58 40.4    0.172    1.050    96.5    74.1    15.6
2000 07 05    21 05.54   +63 05.4    0.164    1.031    90.5    80.4    15.6
2000 07 10    22 37.10   +64 41.6    0.160    1.015    85.1    85.9    15.8
2000 07 15    00 09.33   +62 32.2    0.160    1.003    80.6    90.3    15.9
2000 07 20    01 20.72   +57 28.5    0.164    0.994    77.6    93.1    16.1
2000 07 25    02 10.07   +51 07.6    0.172    0.989    76.1    94.2    16.2
2000 07 30    02 44.32   +44 38.4    0.183    0.987    76.1    93.6    16.3
2000 08 04    03 09.15   +38 34.4    0.197    0.990    77.2    91.7    16.4
2000 08 09    03 28.01   +33 07.7    0.212    0.996    79.1    88.8    16.5
2000 08 14    03 42.87   +28 19.3    0.228    1.006    81.7    85.3    16.5
2000 08 19    03 54.87   +24 05.8    0.245    1.019    84.7    81.5    16.5
2000 08 24    04 04.58   +20 21.5    0.261    1.035    88.0    77.4    16.6
2000 08 29    04 12.33   +17 00.8    0.277    1.055    91.7    73.1    16.6
2000 09 03    04 18.27   +13 59.0    0.293    1.077    95.6    68.7    16.6
2000 09 08    04 22.51   +11 12.2    0.307    1.102    99.8    64.3    16.6
2000 09 13    04 25.11   +08 37.9    0.322    1.129   104.2    59.8    16.6
2000 09 18    04 26.06   +06 14.2    0.335    1.158   108.9    55.2    16.7
2000 09 23    04 25.37   +03 59.8    0.348    1.188   113.8    50.6    16.7
2000 09 28    04 23.03   +01 54.5    0.362    1.219   119.0    45.9    16.7
2000 10 03    04 19.10   -00 01.0    0.376    1.252   124.4    41.3    16.7
2000 10 08    04 13.74   -01 45.5    0.391    1.286   129.9    36.6    16.7
2000 10 13    04 07.13   -03 17.4    0.409    1.320   135.3    32.1    16.7
2000 10 18    03 59.55   -04 35.4    0.428    1.355   140.7    27.8    16.8
2000 10 23    03 51.28   -05 38.0    0.450    1.390   145.6    23.9    16.8
2000 10 28    03 42.68   -06 24.4    0.476    1.425   149.9    20.5    16.9
2000 11 02    03 34.14   -06 54.2    0.505    1.461   153.1    17.9    17.0
2000 11 07    03 26.00   -07 07.8    0.539    1.496   154.9    16.3    17.1
2000 11 12    03 18.56   -07 06.7    0.577    1.532   155.1    15.8    17.3
2000 11 17    03 12.01   -06 52.6    0.619    1.568   153.7    16.2    17.5
2000 11 22    03 06.47   -06 27.4    0.665    1.603   151.2    17.3    17.8
2000 11 27    03 02.03   -05 53.0    0.716    1.638   147.9    18.6    18.0
2000 12 02    02 58.71   -05 11.3    0.771    1.673   144.2    20.2    18.3
2000 12 07    02 56.49   -04 23.9    0.830    1.708   140.3    21.6    18.5
2000 12 12    02 55.31   -03 32.4    0.892    1.742   136.3    23.0    18.8
2000 12 17    02 55.08   -02 38.1    0.958    1.776   132.2    24.2    19.0
2000 12 22    02 55.73   -01 41.9    1.027    1.810   128.2    25.3    19.2
2000 12 27    02 57.18   -00 44.5    1.100    1.843   124.3    26.2    19.4

2001 01 06    03 02.22   +01 11.2    1.252    1.908   116.7    27.4    19.8
2001 01 16    03 09.62   +03 05.0    1.413    1.971   109.3    28.1    20.2
2001 01 26    03 18.91   +04 54.6    1.582    2.032   102.2    28.3    20.5
2001 02 05    03 29.74   +06 38.6    1.754    2.092    95.4    28.0    20.8
2001 02 15    03 41.80   +08 15.7    1.930    2.149    88.8    27.4    21.0
2001 02 25    03 54.86   +09 45.3    2.106    2.205    82.3    26.4    21.2
2001 03 07    04 08.74   +11 06.9    2.282    2.258    76.1    25.2    21.4
2001 03 17    04 23.27   +12 20.0    2.454    2.310    69.9    23.9    21.6
2001 03 27    04 38.33   +13 24.5    2.622    2.359    63.9    22.3    21.7
2001 04 06    04 53.81   +14 20.1    2.784    2.407    57.9    20.6    21.9
2001 04 16    05 09.59   +15 06.7    2.938    2.453    52.1    18.8    22.0
2001 04 26    05 25.61   +15 44.4    3.083    2.496    46.3    16.9    22.0

Gareth V. Williams           (C) Copyright 2000 MPC           M.P.E.C. 2000-K32

Read MPEC 2000-K31 Read MPEC 2000-K33


Our Web policy. Index to the CBAT/MPC/ICQ pages.


Valid HTML 4.01!